Hourly Data Report for November 26, 2019

SHEARWATER RCS
NOVA SCOTIA
Current Station Operator: ECCC - MSC

44°37'47.000" N
63°30'48.000" W
24.00 m
8205092
71264
AAW

Download Data

Hourly Data (November 2019)
Hourly Data Report for November 26, 2019
TIME
LST
Temp Definition
°C
Dew Point Definition
°C
Rel Hum Definition
%
Precip. Amount Definition
mm

Wind Dir Definition
10's deg

Wind Spd Definition
km/h
Visibility Definition
km
Stn Press Definition
kPa
Hmdx Definition


Wind Chill Definition


Weather Definition


00:00 4.4 -0.5 71 0.0 29 17   100.61     LegendNANA
01:00 4.0 -0.3 73 0.0 27 11   100.69     LegendNANA
02:00 3.6 -0.2 76 0.0 25 13   100.76     LegendNANA
03:00 3.4 0.0 78 0.0 24 11   100.84     LegendNANA
04:00 3.1 0.1 81 0.0 25 11   100.88     LegendNANA
05:00 3.3 0.3 81 0.0 24 11   100.93     LegendNANA
06:00 3.2 0.3 81 0.0 25 12   100.97     LegendNANA
07:00 2.8 0.4 84 0.0 24 10   101.04     LegendNANA
08:00 3.2 0.7 84 0.0 24 10   101.11     LegendNANA
09:00 4.7 1.0 77 0.0 25 12   101.19     LegendNANA
10:00 6.7 0.9 67 0.0 27 12   101.19     LegendNANA
11:00 8.0 0.6 60 0.0 27 12   101.18     LegendNANA
12:00
13:00
14:00
15:00
16:00 9.0 2.4 63 0.0 23 15   101.13     LegendNANA
17:00 7.6 3.3 74 0.0 23 13   101.10     LegendNANA
18:00 7.1 4.6 84 0.0 22 10   101.07     LegendNANA
19:00 7.3 5.4 88 0.0 23 12   101.06     LegendNANA
20:00 7.4 5.7 89 0.0 22 11   101.03     LegendNANA
21:00 7.5 5.9 90 0.0 22 12   101.01     LegendNANA
22:00 7.8 6.2 89 0.0 23 18   100.97     LegendNANA
23:00 8.2 6.1 86 0.0 25 16   100.98     LegendNANA

Notes on Data Quality.

Legend

  • E = Estimated
  • M = Missing
  • NA = Not Available*
  • [empty] = Indicates an unobserved value
Date modified: